Regional Weather Roundup
Issued by NWS

Home | Current Version | Previous Version | Text Only | Print | Product List | Glossary Off
Versions: 1 2 3 4 5 6 7 8 9 10 11 12 13 14 15 16 17 18 19 20 21 22 23 24 25 26 27 28 29 30 31 32 33 34 35 36 37 38 39 40 41 42 43 44 45 46 47 48 49 50

000
ASUS43 KLMK 060802
RWRKY
KENTUCKY REGIONAL WEATHER ROUNDUP
NATIONAL WEATHER SERVICE LOUISVILLE KY
400 AM EDT FRI MAY 06 2016

NOTE "FAIR" INDICATES FEW OR NO CLOUDS BELOW 12,000 FEET
WITH NO SIGNIFICANT WEATHER AND/OR OBSTRUCTIONS TO VISIBILITY.

KYZ001>023-026-027-061>063-070>075-060900-
WESTERN AND SOUTH CENTRAL KENTUCKY

CITY           SKY/WX    TMP DP  RH WIND       PRES   REMARKS
PADUCAH        PTCLDY    46  42  86 W3        30.00S
HENDERSON      CLEAR     48  43  81 CALM      29.99S
OWENSBORO      CLEAR     48  47  97 CALM      29.98S
HOPKINSVILLE   CLEAR     48  45  88 W7        29.97F
BOWLING GREEN  CLEAR     51  45  79 NW3       29.96S
GLASGOW        NOT AVBL
$$

KYZ024-025-028>034-038-045-046-053-060900-
NORTH CENTRAL KENTUCKY

CITY           SKY/WX    TMP DP  RH WIND       PRES   REMARKS
LOUISVILLE/SDF CLEAR     53  43  68 N10       29.93F
LOUISVILLE/LOU CLEAR     51  44  77 N3        29.94S
FORT KNOX      CLEAR     48  43  81 NW7       29.93S
$$

KYZ035>037-039>044-047>052-055>060-089>105-060900-
NORTHEAST KENTUCKY

CITY           SKY/WX    TMP DP  RH WIND       PRES   REMARKS
LEXINGTON      PTCLDY    49  45  86 NW7       29.91S
COVINGTON      PTCLDY    49  45  86 N12       29.91S
FRANKFORT      CLEAR     49  44  83 NW5       29.91S
$$

KYZ054-064>069-076>088-106>120-060900-
SOUTHEAST KENTUCKY

CITY           SKY/WX    TMP DP  RH WIND       PRES   REMARKS
JACKSON        CLEAR     44  42  93 NW5       29.86S FOG
LONDON         CLEAR     44  41  89 CALM      29.89S
SOMERSET       NOT AVBL
MIDDLESBORO    PTCLDY    49  44  82 NE3       29.88S
MONTICELLO     PTSUNNY   45  43  93 NE7       29.94S
$$





USA.gov is the U.S. government's official web portal to all federal, state and local government web resources and services.